Погода в Бакуриани

Грузия     41°45′02″N   43°31′42″E
темп.,
°C
ветер,
м/с
пор.,
м/с
влажн.,
%
обл.,
%
осадки,
мм/ч
давл.,
гПа
погр.,
м
6 марта, сб
сб601:00−6ю33620 0.0 102552
04:00−6ю43530 0.0 102649
07:00−6ю43480 0.0 102648
10:000ю33490 0.0 1024116
13:00+5юз23420 0.0 1021476
16:00+4зюз25410 0.0 1019931
19:00−2ю335730 0.0 102040
22:00−3ю335462 0.0 102148
7 марта, вс
вс701:00−3ююз2356100 0.0 102036
04:00−4юз2260100 0.0 102024
07:00−5ююз2267100 0.0 102037
10:00−1з245967 0.0 1020463
13:00−1зсз348694 0.3 1019528
16:00−4ссз349397 2.5 1020451
19:00−6ссз2396100 0.5 1022279
22:00−8зсз129699 0.6 1024222
8 марта, пн
пн801:00−8ююз118983 0.1 1024221
04:00−8ю118655 0.1 102322
07:00−8юв128158 0.0 102224
10:00−4в127379 0.1 1020391
13:00−1св2374100 0.3 1017642
16:00−2ссв2288100 0.6 1015390
19:00−4с2397100 1.0 1016204
22:00−6ссз1297100 1.8 1018128
9 марта, вт
вт901:00−7з1296100 0.3 1018147
04:00−7юз1294100 0.4 1018116
07:00−8юз2293100 0.1 102087
10:00−5зюз257168 0.2 1019808
13:00−2з496012 0.1 10181560
16:00−2зсз496454 0.2 10171627
19:00−5зсз249196 0.5 1020272
22:00−7юз229384 0.5 102352
10 марта, ср
ср1001:00−8ююз228277 0.0 102432
04:00−8ююз227588 0.1 102449
07:00−8ю227499 0.1 102538
10:00−4юз236497 0.1 1023434
13:00−1з255884 0.0 10201315
16:00−1ссз118192 0.2 1018485
19:00−4ссв1196100 1.3 1018112
22:00−5св1296100 2.7 1019136